Wind_Speed
4 3 4 4 3 3 3 3 3 3 3 4 4 4 4 4 4 4 4 4 4 4 4 4 5 5 5 5 5 5 5 5 5 4 5 5 5 5 6 5 6 6 6 7 7 6 5 4 4
4 4 4 5 4 3 3 4 4 4 4 4 4 4 4 4 4 4 4 5 5 5 5 5 5 5 6 6 6 6 6 6 6 5 5 5 5 5 5 5 5 5 5 5 6 6 5 5 4
5 5 5 5 5 4 5 4 4 5 5 5 5 5 5 5 5 5 5 6 6 6 6 6 6 6 6 7 7 7 7 6 6 6 6 6 6 6 6 6 6 5 5 4 5 5 5 5 5
5 5 5 5 5 5 6 5 5 6 6 6 6 6 6 6 6 6 6 6 6 7 7 7 7 7 7 8 8 7 8 8 7 7 7 7 7 6 6 7 6 6 6 5 5 6 6 6 5
6 6 6 6 6 6 6 6 6 6 7 7 7 7 7 7 7 7 7 7 7 8 8 8 8 8 8 9 10 9 9 8 7 8 7 7 7 7 7 7 7 6 6 6 6 7 7 7 7
5 6 6 7 7 7 6 7 7 7 7 7 7 7 7 7 8 8 8 8 8 9 9 9 9 9 9 9 9 9 9 8 8 8 7 7 7 7 6 7 7 7 7 7 7 7 7 7 7
5 6 7 8 8 8 8 8 8 8 8 8 8 8 8 8 8 8 9 9 9 9 9 10 10 9 9 9 9 8 8 7 8 7 8 7 7 7 7 8 8 8 8 7 7 7 7 7 7
6 7 8 8 8 9 9 9 9 9 9 9 9 9 8 9 9 9 9 10 10 10 10 10 10 10 9 9 9 8 8 8 8 8 8 8 8 7 7 7 7 8 7 7 7 7 6 6 7
7 7 8 9 10 9 10 10 10 10 10 9 9 9 9 9 10 10 11 11 11 10 10 11 11 10 9 10 10 9 9 9 8 8 7 7 7 7 7 7 7 7 7 7 7 7 7 7 7
7 8 9 9 11 11 11 11 11 11 10 10 10 10 10 10 10 11 11 11 11 11 10 10 10 10 10 10 10 10 9 9 9 8 7 7 7 7 7 7 7 7 7 6 6 7 7 7 7
9 9 10 10 11 12 12 11 11 12 11 11 11 10 11 11 11 11 11 11 11 11 10 10 10 11 10 10 10 10 10 10 9 9 8 8 8 8 7 7 7 7 7 6 7 7 7 7 7
9 9 10 11 11 12 12 12 12 12 11 12 12 11 11 11 11 11 12 11 11 11 11 11 11 10 10 10 10 11 11 10 10 10 10 10 9 8 8 8 8 8 7 7 7 7 7 7 7
9 9 10 11 11 12 12 12 12 12 12 12 11 11 11 11 11 11 12 12 11 11 11 11 10 10 10 10 11 11 11 10 10 10 10 10 9 8 8 8 7 7 7 7 7 7 7 7 8
10 10 10 11 11 12 12 12 12 12 12 12 12 12 12 12 12 12 12 12 11 10 11 11 11 11 11 10 10 10 10 10 10 10 9 9 9 8 7 7 7 7 7 7 7 7 7 7 8
10 10 10 10 10 11 12 12 11 12 12 12 12 12 12 13 12 12 13 12 11 11 11 11 10 10 10 10 11 11 10 10 10 10 10 9 8 8 7 8 8 7 7 7 8 8 8 8 8
10 11 11 10 11 11 11 11 11 11 11 12 12 12 12 12 12 12 12 12 12 11 11 11 11 11 11 11 11 10 10 10 10 10 10 10 9 8 8 8 8 7 8 8 8 8 8 8 9
10 10 11 11 10 10 11 11 12 12 12 12 12 12 12 12 12 12 12 12 12 12 12 12 12 12 11 11 11 11 10 10 11 10 10 10 9 9 8 8 8 8 8 8 8 8 8 9 9
10 11 11 11 10 10 11 12 12 12 13 13 12 12 12 12 13 13 13 12 13 13 13 13 13 12 12 12 11 11 10 9 10 10 10 10 9 9 9 9 9 9 8 8 9 9 9 9 9
11 11 11 11 11 12 11 11 12 12 12 13 12 12 12 12 13 13 13 12 13 13 13 13 13 12 12 12 11 10 10 10 10 10 11 11 10 9 10 10 10 10 10 9 10 10 9 9 9
11 11 11 12 11 12 12 11 12 12 12 12 12 12 12 11 12 12 11 12 11 12 12 12 12 12 12 12 11 11 10 10 11 11 10 10 10 10 10 10 10 10 10 11 10 10 10 10 10
11 11 11 11 10 11 11 11 11 11 12 12 12 12 11 11 11 11 11 11 11 11 11 11 11 12 11 11 11 11 11 11 11 11 11 10 10 10 11 11 10 10 10 11 11 11 11 11 11
11 11 10 10 10 10 10 11 11 12 12 12 12 12 11 11 11 11 10 10 11 11 11 11 11 11 11 11 11 11 11 11 11 11 11 11 11 11 11 11 10 10 11 11 11 11 11 11 11
11 10 10 11 11 11 11 11 11 12 12 12 12 12 12 12 12 12 11 11 11 11 11 11 11 11 11 11 11 11 11 11 11 11 12 11 11 11 11 12 11 11 11 12 12 12 12 12 11
11 11 10 11 11 11 11 12 11 12 12 12 12 12 12 12 12 12 12 12 12 11 12 12 12 12 12 12 12 12 12 12 12 12 12 12 12 12 12 12 12 12 13 13 13 12 12 12 12
11 11 10 9 10 10 10 12 13 13 13 13 13 13 13 13 13 13 13 12 12 12 12 13 13 12 12 12 13 13 13 13 13 13 13 13 13 12 13 13 12 13 13 13 13 12 12 13 13
12 12 11 10 10 10 11 12 14 13 13 14 14 14 14 14 14 14 14 13 13 13 13 14 14 13 13 14 14 14 14 14 14 14 14 14 14 13 13 13 13 13 13 13 13 12 12 13 13
13 13 13 13 13 13 12 13 15 15 15 15 15 15 15 14 14 15 15 14 14 14 14 14 14 14 14 15 15 15 15 15 15 15 15 15 15 14 14 13 14 14 13 13 13 13 13 13 13
15 15 14 16 16 15 13 14 15 16 16 16 16 16 16 15 15 15 15 15 15 15 15 14 14 14 15 15 16 16 16 16 16 15 15 15 14 14 14 15 14 14 14 14 14 14 14 14 14
15 16 16 17 17 17 15 15 17 18 17 17 17 17 17 17 16 16 16 17 17 17 17 16 16 16 17 17 17 17 17 17 17 16 16 15 15 15 15 15 14 14 15 15 15 15 14 15 15
15 16 17 18 18 17 17 17 18 19 18 19 19 18 18 18 18 18 18 18 18 18 18 18 18 18 18 18 18 18 18 18 17 17 16 16 16 16 16 16 16 15 16 16 16 16 16 16 16
Wind_Direction
210 214 209 207 210 208 224 236 241 248 250 243 252 263 266 270 279 280 282 283 291 296 302 311 312 314 315 313 306 306 304 299 293 290 299 294 289 288 286 288 289 286 282 260 250 262 272 270 270
215 222 219 220 218 226 240 250 254 256 255 257 262 271 262 267 276 279 280 283 286 289 295 304 310 309 309 304 305 306 301 299 294 290 294 292 292 290 289 290 291 295 293 273 259 261 268 269 267
222 228 224 229 228 235 246 255 258 257 257 261 267 270 266 268 275 280 284 286 286 289 291 294 298 301 303 304 303 305 307 303 299 293 292 292 291 289 286 288 290 292 294 282 267 265 271 272 269
228 232 232 231 236 246 252 258 263 267 267 267 267 264 268 274 279 283 285 289 290 291 292 291 293 296 296 298 303 307 311 307 302 297 293 291 290 286 283 286 290 288 283 280 275 274 277 274 275
232 234 235 236 241 250 258 260 263 270 275 273 269 266 269 276 283 287 286 287 292 295 297 293 292 292 293 294 299 302 307 309 308 305 303 297 296 288 282 283 287 285 282 283 280 277 277 274 276
237 236 239 241 244 254 257 259 263 269 275 274 273 274 274 275 279 284 286 287 291 294 296 296 293 293 295 295 298 301 306 310 308 307 309 308 301 291 289 288 283 279 277 276 277 277 277 276 278
239 242 245 247 250 256 259 262 265 269 272 274 274 276 276 277 279 282 283 286 289 291 292 293 291 290 292 297 300 298 302 304 303 303 304 305 304 297 293 292 286 281 277 276 278 277 276 281 281
245 248 251 254 254 258 258 261 265 268 270 272 272 276 278 280 277 279 282 284 287 288 290 290 289 289 291 293 295 295 297 299 301 303 301 298 296 295 293 293 290 286 282 284 284 283 280 287 285
253 253 258 258 258 259 261 263 265 267 270 270 274 278 279 282 281 279 282 286 286 287 288 288 290 290 290 293 294 295 292 294 297 299 297 294 288 288 290 290 291 290 288 286 289 289 285 288 289
260 259 263 266 264 263 264 265 264 266 270 271 274 278 282 282 281 282 284 286 286 286 286 287 288 288 287 289 291 293 293 291 292 294 295 295 293 289 289 287 290 288 286 284 288 290 289 286 289
261 263 266 266 266 264 263 262 263 266 270 271 274 276 279 279 281 284 284 284 283 283 283 284 286 286 286 288 288 290 291 289 289 293 292 292 293 292 289 289 291 292 293 294 294 292 293 289 285
263 266 267 266 265 265 263 261 263 266 270 271 274 275 275 275 278 281 282 282 282 282 281 282 283 285 288 289 288 289 288 286 286 288 290 291 292 291 290 292 295 292 293 296 296 295 294 292 290
265 268 269 268 265 265 266 263 263 267 269 271 271 274 275 274 276 281 285 283 282 282 283 286 288 288 290 290 290 286 284 282 285 287 290 294 296 295 298 297 295 293 292 289 287 291 293 293 290
268 270 271 270 269 265 265 266 266 267 270 271 272 274 276 277 277 280 282 282 283 286 287 289 288 287 288 289 290 290 285 285 288 291 292 293 292 293 294 298 298 295 293 291 293 293 291 291 286
267 267 268 269 270 267 266 269 268 268 270 273 276 276 275 277 276 279 283 284 285 286 288 288 288 287 288 289 288 288 285 283 286 287 291 290 289 291 291 292 294 294 293 293 293 293 291 289 289
266 267 268 269 269 270 269 271 269 271 276 279 280 280 278 279 277 280 283 284 286 285 286 288 287 286 286 288 290 286 284 282 284 283 286 289 290 292 294 295 292 288 286 287 288 292 295 293 292
272 274 270 267 267 268 267 271 271 274 279 282 281 281 281 281 278 280 280 282 283 283 283 286 286 285 283 283 286 286 285 283 279 280 285 287 288 289 292 294 295 291 286 289 290 293 293 293 294
273 272 270 267 268 267 269 271 272 275 278 281 283 282 279 280 280 280 280 281 280 281 282 282 282 283 282 281 281 281 284 283 283 281 282 286 285 285 288 289 290 292 288 290 290 290 291 290 292
266 265 267 269 271 271 270 274 277 280 280 281 283 283 281 281 280 280 282 284 282 282 283 282 280 280 280 280 277 278 280 281 282 282 280 281 281 281 284 288 292 292 290 290 291 289 290 290 291
258 260 265 265 267 272 274 274 277 281 282 285 286 284 283 281 280 280 282 286 287 287 287 284 280 279 281 281 276 277 278 279 281 281 283 280 280 280 281 288 292 293 291 287 288 289 289 288 290
260 258 260 265 265 270 278 277 278 282 282 285 287 286 283 283 281 281 282 285 287 289 291 288 285 284 282 281 278 279 279 280 279 281 282 281 280 280 282 283 286 287 288 287 287 287 287 286 287
261 258 260 265 267 271 280 284 283 286 284 284 286 287 284 282 282 280 281 283 285 287 289 288 284 283 282 281 281 281 282 281 278 279 281 278 278 279 282 284 284 282 284 285 285 284 284 285 286
261 260 262 266 270 271 276 283 284 288 288 283 281 283 283 283 283 281 281 282 284 284 285 285 285 283 283 285 286 286 284 284 283 281 283 279 278 279 281 283 281 282 282 281 282 281 282 283 285
261 260 263 266 270 273 276 282 286 284 287 287 283 281 281 283 285 285 284 283 283 284 281 281 282 282 283 284 286 289 288 288 287 286 286 282 280 280 281 283 283 282 281 280 279 279 279 279 283
261 261 265 271 275 280 279 277 275 278 289 292 286 283 282 283 286 286 286 284 282 283 283 283 282 280 281 282 282 284 286 286 287 287 287 286 283 282 281 282 285 284 284 282 279 278 279 278 281
260 259 260 261 265 272 275 274 277 282 287 287 287 285 282 281 283 285 285 282 282 283 284 283 281 281 281 280 280 282 284 286 288 288 287 286 284 283 281 280 279 281 284 286 285 280 280 280 281
257 256 256 253 258 262 269 275 280 281 284 285 285 285 283 281 282 284 284 283 283 285 284 284 283 282 281 282 282 283 283 285 288 288 287 284 282 282 283 279 278 278 279 281 283 282 280 282 283
259 258 257 255 260 261 265 271 273 280 282 285 285 284 284 283 283 284 282 282 284 284 284 284 284 284 283 284 285 284 284 285 287 286 285 284 282 281 283 280 279 280 280 281 280 281 282 284 285
263 260 260 260 261 262 259 264 273 278 282 285 286 285 283 282 284 283 282 282 283 283 283 283 283 283 283 283 284 284 284 284 283 285 283 282 281 280 282 281 280 279 280 281 282 282 283 284 284
265 261 257 257 258 260 259 261 272 276 279 282 284 282 280 281 283 282 280 281 282 281 281 280 281 282 282 283 285 285 284 283 281 281 282 279 279 278 279 279 278 279 280 279 282 283 283 283 283
Height
5877 5878 5878 5879 5880 5880 5879 5880 5880 5880 5881 5881 5881 5882 5882 5883 5884 5886 5883 5882 5882 5882 5882 5882 5881 5880 5880 5879 5879 5878 5878 5877 5877 5877 5876 5876 5875 5875 5875 5874 5874 5872 5870 5868 5870 5872 5873 5873 5873
5877 5878 5879 5879 5879 5879 5880 5879 5880 5880 5881 5880 5881 5881 5882 5882 5882 5882 5882 5882 5882 5882 5882 5881 5881 5880 5879 5879 5879 5878 5877 5877 5876 5876 5876 5875 5875 5874 5874 5874 5873 5871 5868 5866 5868 5871 5872 5872 5872
5876 5877 5879 5879 5878 5879 5879 5879 5879 5880 5880 5880 5881 5881 5881 5882 5882 5881 5881 5881 5881 5881 5881 5881 5880 5880 5879 5879 5878 5877 5877 5876 5875 5875 5875 5874 5874 5874 5873 5872 5872 5871 5869 5868 5869 5870 5871 5871 5872
5876 5877 5878 5879 5878 5878 5878 5879 5879 5879 5879 5879 5880 5880 5880 5881 5881 5881 5881 5881 5881 5881 5880 5880 5880 5879 5878 5878 5877 5876 5876 5875 5874 5874 5874 5873 5873 5873 5872 5871 5871 5871 5870 5870 5870 5870 5870 5871 5871
5875 5876 5877 5877 5877 5877 5878 5878 5878 5879 5879 5879 5879 5879 5879 5880 5880 5880 5880 5880 5880 5880 5879 5879 5878 5878 5877 5877 5876 5875 5875 5874 5873 5873 5873 5872 5872 5871 5871 5871 5870 5870 5870 5869 5869 5869 5870 5870 5870
5875 5875 5876 5876 5876 5877 5877 5877 5878 5878 5878 5878 5878 5879 5879 5879 5879 5879 5879 5879 5879 5879 5878 5878 5877 5877 5876 5876 5875 5874 5874 5873 5872 5872 5871 5871 5870 5870 5870 5869 5869 5869 5868 5868 5868 5868 5868 5869 5869
5874 5874 5874 5874 5875 5876 5876 5876 5876 5877 5877 5877 5877 5878 5878 5878 5878 5878 5878 5878 5878 5877 5877 5876 5876 5876 5875 5875 5874 5873 5873 5872 5872 5871 5871 5870 5869 5869 5868 5868 5867 5867 5867 5867 5867 5867 5867 5867 5867
5872 5874 5873 5873 5874 5874 5874 5875 5875 5875 5876 5876 5876 5876 5877 5877 5877 5877 5877 5876 5876 5876 5875 5875 5875 5874 5874 5873 5873 5872 5872 5871 5870 5870 5869 5868 5868 5867 5867 5866 5866 5866 5865 5866 5866 5866 5866 5866 5866
5871 5873 5872 5872 5872 5873 5873 5873 5874 5874 5874 5874 5875 5875 5875 5875 5875 5875 5875 5875 5874 5874 5874 5873 5873 5872 5872 5872 5871 5871 5870 5870 5869 5868 5868 5867 5866 5866 5865 5865 5865 5865 5864 5864 5864 5864 5865 5865 5865
5870 5870 5870 5870 5870 5871 5871 5872 5872 5872 5873 5873 5873 5874 5874 5873 5873 5873 5873 5873 5872 5872 5872 5871 5871 5871 5870 5870 5870 5869 5869 5868 5868 5867 5866 5865 5865 5864 5864 5864 5863 5863 5863 5863 5863 5864 5863 5864 5864
5868 5868 5869 5868 5869 5869 5870 5870 5870 5871 5871 5872 5872 5872 5872 5872 5872 5871 5871 5871 5870 5870 5870 5869 5869 5869 5868 5868 5868 5868 5867 5867 5866 5865 5864 5864 5864 5863 5863 5862 5862 5862 5862 5862 5862 5862 5862 5862 5862
5866 5867 5867 5867 5867 5867 5868 5868 5868 5869 5870 5870 5870 5870 5870 5870 5870 5869 5869 5869 5868 5868 5868 5867 5867 5867 5866 5866 5866 5866 5865 5865 5864 5864 5863 5862 5862 5862 5861 5861 5861 5861 5861 5861 5861 5861 5861 5861 5861
5864 5865 5865 5865 5865 5866 5866 5866 5867 5867 5867 5867 5868 5868 5868 5868 5867 5867 5867 5866 5866 5866 5866 5865 5865 5865 5864 5864 5864 5863 5863 5863 5862 5862 5861 5861 5861 5860 5860 5860 5860 5860 5860 5860 5860 5860 5860 5860 5860
5862 5863 5863 5863 5863 5864 5864 5864 5865 5865 5865 5865 5866 5866 5866 5865 5865 5865 5865 5864 5864 5864 5864 5863 5863 5862 5862 5862 5862 5861 5861 5860 5860 5860 5859 5859 5859 5859 5859 5859 5859 5859 5859 5859 5859 5858 5858 5858 5858
5860 5861 5861 5861 5861 5861 5862 5863 5863 5863 5863 5863 5863 5863 5863 5863 5863 5863 5862 5862 5862 5862 5862 5861 5861 5860 5860 5860 5860 5859 5859 5859 5858 5858 5858 5858 5858 5858 5857 5857 5857 5857 5857 5857 5857 5857 5857 5857 5857
5858 5858 5859 5859 5859 5859 5861 5861 5861 5861 5861 5861 5861 5861 5861 5861 5861 5860 5860 5860 5860 5860 5859 5859 5859 5858 5858 5858 5857 5857 5857 5857 5856 5856 5856 5856 5856 5856 5856 5856 5856 5856 5856 5856 5855 5855 5855 5855 5855
5856 5856 5856 5857 5857 5857 5858 5859 5859 5859 5859 5859 5859 5859 5858 5858 5858 5858 5858 5857 5857 5857 5857 5857 5856 5856 5856 5856 5855 5855 5855 5854 5854 5854 5854 5854 5854 5854 5854 5854 5854 5854 5854 5854 5854 5854 5853 5853 5853
5854 5854 5854 5855 5855 5855 5856 5856 5856 5857 5857 5857 5857 5856 5856 5856 5856 5856 5855 5855 5855 5855 5855 5854 5854 5854 5853 5853 5853 5853 5852 5852 5852 5852 5852 5852 5852 5852 5852 5852 5852 5852 5852 5852 5852 5852 5852 5852 5851
5851 5852 5852 5853 5853 5853 5853 5854 5854 5854 5854 5854 5854 5854 5854 5853 5853 5853 5853 5853 5852 5852 5852 5852 5851 5851 5851 5851 5851 5850 5850 5850 5850 5850 5850 5850 5850 5850 5850 5850 5850 5850 5850 5850 5850 5850 5850 5849 5849
5849 5849 5850 5851 5851 5851 5851 5852 5852 5852 5852 5852 5851 5851 5851 5851 5851 5851 5850 5850 5850 5849 5849 5849 5848 5848 5848 5848 5848 5848 5848 5847 5847 5847 5847 5847 5847 5847 5847 5848 5848 5848 5848 5848 5847 5847 5847 5847 5847
5847 5847 5848 5848 5849 5849 5850 5850 5850 5850 5849 5849 5849 5849 5849 5849 5849 5848 5848 5848 5847 5847 5846 5846 5846 5845 5845 5845 5845 5845 5845 5845 5845 5844 5845 5844 5845 5845 5845 5845 5845 5845 5845 5845 5845 5845 5844 5844 5844
5844 5845 5846 5846 5847 5847 5848 5847 5848 5847 5847 5847 5847 5847 5847 5846 5846 5846 5846 5845 5845 5844 5844 5843 5843 5843 5843 5842 5842 5842 5842 5842 5842 5842 5841 5842 5842 5842 5842 5842 5842 5842 5842 5842 5842 5842 5842 5842 5842
5843 5843 5844 5844 5845 5845 5845 5845 5846 5845 5845 5845 5845 5845 5844 5844 5844 5843 5843 5843 5842 5842 5841 5841 5841 5840 5840 5840 5839 5839 5839 5839 5838 5838 5838 5838 5838 5839 5839 5839 5839 5839 5839 5839 5839 5839 5839 5839 5838
5841 5841 5842 5842 5842 5843 5844 5844 5844 5843 5843 5843 5843 5843 5842 5842 5841 5841 5841 5840 5840 5839 5839 5838 5838 5838 5838 5837 5837 5836 5836 5836 5835 5835 5835 5835 5835 5835 5836 5836 5836 5836 5836 5836 5836 5835 5835 5835 5835
5838 5840 5840 5840 5840 5841 5841 5841 5842 5841 5841 5840 5840 5840 5840 5839 5839 5838 5838 5838 5837 5837 5836 5836 5835 5835 5835 5834 5834 5834 5833 5833 5833 5832 5832 5832 5832 5832 5832 5833 5833 5832 5832 5832 5832 5832 5832 5832 5832
5836 5837 5838 5839 5839 5839 5839 5839 5839 5839 5838 5838 5838 5837 5837 5837 5836 5836 5835 5835 5834 5834 5833 5833 5832 5832 5832 5831 5831 5831 5830 5830 5829 5829 5829 5829 5829 5829 5829 5829 5829 5829 5829 5829 5829 5829 5829 5829 5828
5833 5833 5835 5836 5835 5836 5836 5836 5836 5835 5836 5836 5835 5835 5834 5834 5833 5833 5832 5832 5831 5831 5830 5830 5829 5829 5828 5828 5828 5827 5827 5827 5826 5826 5825 5825 5825 5825 5825 5825 5825 5825 5826 5826 5826 5826 5826 5825 5825
5830 5831 5831 5832 5832 5832 5834 5833 5833 5832 5832 5832 5832 5832 5831 5830 5830 5829 5829 5828 5828 5827 5827 5826 5826 5825 5825 5824 5824 5824 5823 5823 5822 5822 5821 5821 5821 5821 5822 5822 5822 5822 5822 5822 5822 5822 5822 5822 5822
5827 5828 5827 5828 5828 5829 5830 5832 5829 5829 5828 5828 5828 5828 5827 5827 5826 5826 5825 5825 5824 5823 5823 5822 5822 5821 5821 5821 5820 5819 5819 5818 5818 5818 5818 5817 5817 5818 5818 5818 5818 5819 5819 5819 5819 5819 5819 5818 5818
5823 5823 5824 5825 5825 5825 5825 5828 5826 5825 5824 5824 5824 5823 5823 5823 5822 5822 5821 5820 5820 5819 5819 5818 5818 5817 5817 5816 5816 5815 5814 5814 5814 5813 5813 5813 5814 5814 5814 5814 5815 5815 5815 5815 5815 5815 5815 5814 5814